This is the latest recevied weather packets stored in our database for station/object K3SV. If no packets are shown the sender has not sent any weather packets the latest 10 day(s).
| Time | Temp. | Humidity | Pressure | Rain* | Wind** | Luminosity | Snow |
|---|---|---|---|---|---|---|---|
| 1777466421 | 20° C | 98% | 1017.5 hPa | 0 mm | - | 92 W/m² | - |
| 1777466121 | 20° C | 98% | 1017.6 hPa | 0 mm | - | 91 W/m² | - |
| 1777465818 | 20° C | 98% | 1017.5 hPa | 0 mm | - | 92 W/m² | - |
| 1777465513 | 19.44° C | 98% | 1017.6 hPa | 0 mm | - | 96 W/m² | - |
| 1777465208 | 19.44° C | 99% | 1017.7 hPa | 0 mm | - | 90 W/m² | - |
| 1777464903 | 18.89° C | 99% | 1017.6 hPa | 0 mm | - | 86 W/m² | - |
| 1777464598 | 18.89° C | 99% | 1017.5 hPa | 0 mm | - | 76 W/m² | - |
| 1777464295 | 18.89° C | 99% | 1017.5 hPa | 0 mm | - | 70 W/m² | - |
| 1777463990 | 18.33° C | 99% | 1017.6 hPa | 0 mm | - | 58 W/m² | - |
| 1777463685 | 18.33° C | 99% | 1017.2 hPa | 0 mm | - | 52 W/m² | - |
| 1777463380 | 18.33° C | 99% | 1017.4 hPa | 0 mm | - | 43 W/m² | - |
| 1777463077 | 18.33° C | 99% | 1017.2 hPa | 0 mm | - | 39 W/m² | - |
| 1777462773 | 17.78° C | 99% | 1017.2 hPa | 0 mm | - | 34 W/m² | - |
| 1777462468 | 17.78° C | 99% | 1017.1 hPa | 0 mm | - | 29 W/m² | - |
| 1777462165 | 17.78° C | 99% | 1016.9 hPa | 0 mm | - | 24 W/m² | - |
| 1777461861 | 17.78° C | 99% | 1016.7 hPa | 0 mm | - | 22 W/m² | - |
| 1777461558 | 17.78° C | 99% | 1016.8 hPa | 0 mm | - | 18 W/m² | - |
| 1777461254 | 17.78° C | 99% | 1016.6 hPa | 0 mm | - | 15 W/m² | - |
| 1777460949 | 17.78° C | 99% | 1016.5 hPa | 0 mm | - | 11 W/m² | - |
| 1777460644 | 17.78° C | 99% | 1016.5 hPa | 0 mm | - | 9 W/m² | - |
| 1777460341 | 17.78° C | 99% | 1016.5 hPa | 0 mm | - | 5 W/m² | - |
| 1777460037 | 17.22° C | 99% | 1016.4 hPa | 0 mm | - | 4 W/m² | - |
| 1777459734 | 17.22° C | 99% | 1016.3 hPa | 0 mm | - | 2 W/m² | - |
| 1777459431 | 17.78° C | 99% | 1016.2 hPa | 0 mm | - | 1 W/m² | - |
| 1777459129 | 17.78° C | 99% | 1016.3 hPa | 0 mm | - | 0 W/m² | - |
* Rain latest hour (hover to see other rain measurements)
** Current wind speed in m/s (hover to see current wind gust speed)